Theta_e
272 272 272 273 272 272 272 272 272 272 272 272 271 271 272 272 272 272 272 271 271 271 271 271 270 270 270 270 270 270 270 270 270 270 270 270 271 271 272 273 273 274 276 277 279 280 281 282 284 285 286 285 286 286 286 286 286 286 286 285 285 285 284 282 281 281 282 279 279 279 279 280 280 281 280 280 280 281 284 281 281 281 282 282 282
273 273 273 273 272 272 272 272 272 272 271 271 271 271 272 272 272 272 271 272 271 271 270 271 270 270 270 270 270 270 269 269 269 269 269 269 269 270 271 271 272 272 274 276 278 279 279 279 281 284 286 285 285 285 286 286 285 285 285 285 285 285 285 283 282 282 281 284 279 279 278 280 279 281 280 280 280 280 281 281 280 280 280 281 281
274 274 273 273 272 272 272 272 272 271 271 271 271 271 271 271 272 271 271 271 271 271 270 270 270 270 269 269 269 269 269 269 269 269 268 268 268 269 270 270 271 271 273 274 276 278 278 278 279 281 284 285 285 285 286 285 286 285 285 285 285 285 286 285 284 282 282 283 284 279 278 279 279 280 281 281 281 281 280 281 280 280 281 281 281
274 274 273 273 273 272 272 272 271 271 271 271 271 271 272 271 271 270 271 270 270 270 270 270 270 269 269 269 269 269 269 269 269 268 268 268 268 268 269 269 270 271 272 273 275 277 277 278 278 279 281 282 284 285 285 285 285 285 285 286 285 285 285 286 285 284 284 283 284 282 280 278 278 280 280 281 281 281 281 280 281 280 281 281 280
274 274 273 273 273 273 272 272 271 271 271 271 271 271 271 271 270 270 270 270 270 269 269 269 269 269 268 268 268 268 268 268 268 268 268 268 268 268 268 269 269 270 270 271 273 275 277 277 278 279 279 279 282 284 285 285 285 285 285 285 285 285 285 285 285 285 285 284 285 283 281 279 280 280 280 279 280 280 281 280 281 281 280 281 280
274 274 273 273 272 272 272 271 270 270 270 270 270 270 270 270 270 270 269 269 269 269 268 268 268 268 268 268 268 267 268 267 267 267 267 267 267 267 267 268 268 269 270 271 272 274 276 277 278 278 278 278 279 282 284 285 285 285 285 285 285 285 285 285 285 285 285 284 285 282 279 278 278 279 280 280 280 279 279 280 281 281 280 280 280
273 273 273 272 271 271 271 270 270 270 270 270 270 270 270 270 269 269 270 269 268 268 268 268 268 267 267 267 267 267 267 266 265 266 266 266 266 266 266 267 268 269 271 272 273 274 276 277 277 277 278 278 279 280 283 284 285 284 285 285 285 285 285 285 284 284 283 283 284 284 281 280 280 278 279 281 281 280 278 278 277 279 280 280 279
272 273 273 272 271 270 271 271 270 269 269 270 270 270 269 269 268 269 269 269 268 268 267 267 267 266 266 266 266 266 265 265 265 265 265 265 265 265 267 268 269 270 271 273 274 274 274 275 276 277 278 279 279 280 282 283 284 284 285 285 285 285 284 285 284 284 283 282 282 282 282 280 278 277 279 279 278 278 280 279 278 277 277 279 280
271 271 272 271 271 270 269 269 269 268 268 268 268 268 268 268 268 268 269 269 268 268 267 267 265 265 264 264 264 264 264 264 264 264 264 265 266 267 269 270 270 271 272 272 273 273 274 275 276 276 278 279 280 281 282 283 283 283 284 285 284 284 284 284 284 284 283 282 282 282 281 279 279 277 276 277 277 278 279 279 279 279 278 277 278
270 270 270 270 270 269 269 269 269 269 268 267 268 268 267 267 267 266 267 267 266 266 265 265 264 264 264 264 263 263 263 264 266 268 269 268 268 269 269 270 270 271 270 271 271 273 274 275 275 276 277 278 279 280 281 282 283 283 284 284 284 284 284 283 283 284 283 282 281 281 279 278 278 278 277 278 279 279 277 278 278 277 276 276 276
269 269 269 270 270 270 270 270 270 269 268 267 267 267 268 267 266 266 266 266 265 265 265 264 264 264 264 264 264 264 264 264 267 271 272 273 271 269 268 269 270 271 271 271 272 273 274 274 273 274 275 276 278 279 280 281 282 283 284 284 285 284 283 283 283 283 283 282 283 282 280 279 278 278 279 279 279 279 278 278 278 277 275 275 274
269 269 270 270 270 270 269 269 268 267 267 267 268 267 267 267 267 267 267 266 266 265 264 264 264 264 264 263 263 263 263 266 270 272 273 273 273 270 270 270 270 271 271 272 272 273 273 273 273 273 273 275 276 277 279 281 281 282 283 284 284 285 285 284 283 282 282 282 282 282 281 280 279 278 278 278 277 278 278 278 278 276 276 276 276
270 270 270 269 269 268 268 268 267 267 267 267 267 267 267 267 267 267 267 268 267 265 265 265 264 264 263 262 262 263 263 267 270 271 272 273 274 272 270 270 270 270 271 271 271 272 272 272 272 272 273 275 276 276 278 279 281 282 282 283 283 284 284 285 285 284 283 282 282 281 282 281 281 279 279 278 278 277 277 277 277 277 277 277 277
269 268 268 268 268 268 268 268 267 266 266 266 266 266 266 266 266 267 267 266 266 265 265 264 264 263 262 262 262 262 262 265 269 271 272 273 273 273 269 270 270 270 271 271 271 271 271 271 271 271 271 272 273 275 276 278 279 281 281 281 282 283 283 284 284 284 284 283 282 281 282 282 281 281 280 279 277 276 276 276 277 276 276 277 277
267 267 267 268 268 267 267 266 265 265 265 265 265 265 265 265 265 265 265 265 264 264 263 263 263 263 263 262 261 261 262 267 270 271 272 272 273 272 269 269 270 270 270 270 271 270 270 271 271 270 270 271 273 274 275 277 278 279 280 280 281 281 282 282 283 283 283 282 282 282 282 281 281 281 279 279 279 279 279 278 278 277 275 273 272
265 266 267 266 265 265 264 264 264 264 264 264 264 264 265 265 265 266 265 264 263 263 263 263 263 263 263 261 260 261 262 268 269 270 271 272 272 269 268 269 269 270 270 270 269 270 270 270 270 270 270 270 273 275 276 277 277 277 278 279 280 280 280 282 283 284 283 282 281 281 280 280 281 279 279 278 278 278 277 276 276 274 274 273 271
265 266 265 264 264 263 263 263 263 263 264 264 263 263 264 264 264 264 263 263 263 263 263 263 263 262 261 261 260 261 261 265 268 269 270 271 270 268 268 268 267 268 268 269 268 269 269 269 270 270 271 271 273 276 277 278 277 276 276 278 279 279 278 280 283 284 284 283 283 283 282 283 283 283 282 281 279 278 276 275 273 275 273 271 270
264 263 263 263 263 263 264 264 263 262 262 261 261 262 262 263 263 263 263 262 262 262 262 262 262 261 261 261 261 260 261 262 266 268 269 270 269 267 267 267 267 267 267 268 268 268 269 271 272 270 270 271 274 276 277 277 276 275 275 275 276 277 277 279 280 282 283 283 283 283 283 283 283 283 283 282 281 279 276 274 274 275 273 273 270
262 261 262 263 264 264 263 262 261 261 260 260 261 261 261 262 263 264 264 263 262 261 261 261 261 261 261 260 262 261 260 261 264 267 268 269 268 266 266 266 265 265 266 266 267 268 268 269 271 271 271 273 276 277 277 277 275 274 274 275 274 275 276 278 278 279 279 279 280 281 281 282 281 281 281 281 280 279 278 277 276 274 273 273 270
261 262 263 264 263 262 261 261 260 260 259 259 260 260 261 262 262 263 262 261 260 260 261 260 260 259 260 259 259 260 259 259 261 266 268 269 269 267 266 266 265 266 266 266 265 266 267 266 267 271 273 274 275 276 277 278 274 273 273 273 273 273 275 276 277 278 278 278 278 279 279 279 279 279 280 279 278 277 276 276 276 276 274 272 271
261 262 263 262 261 260 260 259 259 259 259 259 259 260 260 260 261 260 260 260 259 259 259 259 258 258 258 259 259 259 259 259 260 266 267 268 269 268 266 266 266 266 266 265 264 264 266 266 265 268 271 273 274 275 276 277 277 272 272 272 272 274 276 274 277 277 275 274 275 275 275 276 277 277 277 276 275 275 275 275 275 275 274 272 271
262 263 262 260 259 259 258 258 258 258 259 259 258 258 259 259 259 259 258 258 257 258 258 257 257 257 257 258 258 258 260 261 260 263 267 268 269 269 266 266 267 266 265 264 263 264 264 265 264 268 271 272 273 274 275 276 276 271 272 275 277 276 273 273 272 272 272 272 272 272 273 273 273 273 274 274 274 273 273 273 273 273 273 274 273
262 262 260 258 258 258 258 257 258 258 258 258 257 257 258 258 258 258 257 257 257 256 256 255 255 256 256 257 258 258 259 260 262 262 264 267 269 269 269 268 270 268 266 265 265 265 265 264 265 269 271 272 273 274 275 275 274 273 276 277 277 274 272 271 271 271 271 271 271 270 270 271 270 270 271 271 272 272 271 271 270 270 269 269 269
261 259 258 258 257 257 257 257 257 257 257 257 257 257 258 258 257 257 257 257 257 256 256 256 255 255 256 256 258 258 259 260 262 263 263 265 268 269 269 270 270 268 268 267 266 265 264 264 265 271 272 273 273 272 273 273 273 275 276 275 273 272 270 270 269 269 269 269 268 268 268 269 268 267 267 268 268 268 268 268 267 266 265 264 265
258 257 257 256 256 256 256 256 256 256 256 257 257 258 258 257 257 258 258 257 256 255 255 256 256 256 256 256 257 258 259 259 260 262 263 264 267 268 269 269 268 268 268 267 266 265 266 269 271 271 271 271 270 268 267 268 269 269 270 271 271 269 269 269 268 268 267 266 266 265 264 265 266 267 267 267 267 267 265 265 265 264 264 264 263
257 256 256 256 256 255 255 255 255 256 256 257 257 257 256 257 257 257 257 256 256 256 255 256 256 256 256 256 256 257 258 259 259 260 262 263 264 266 267 267 267 268 267 265 267 268 270 269 269 267 267 266 264 264 264 265 266 265 266 266 265 267 268 267 267 267 266 265 264 263 263 264 264 265 267 267 266 265 265 265 264 264 265 264 262
256 256 256 256 255 255 254 255 256 257 256 256 256 256 256 255 255 256 256 255 256 256 256 256 256 255 256 256 257 257 258 258 259 260 260 260 259 261 262 263 266 265 263 263 264 264 265 266 265 266 265 265 264 263 262 263 262 262 261 262 262 262 263 265 266 265 264 263 262 262 263 264 266 265 264 265 264 264 266 265 264 263 263 262 261
256 256 256 256 255 255 254 257 257 256 256 256 255 255 256 255 254 254 254 255 256 256 256 256 256 256 256 257 257 257 258 258 259 259 260 260 260 260 261 261 260 260 261 261 261 262 262 263 263 261 261 260 260 260 259 259 259 259 259 260 260 262 264 264 263 262 262 262 262 262 262 263 262 262 262 261 261 261 263 263 262 261 261 261 258
256 255 255 254 254 255 255 255 255 255 255 255 255 255 255 256 256 256 256 257 257 258 258 259 259 259 259 259 258 258 258 258 260 263 263 265 264 260 259 260 259 259 262 263 261 260 260 260 260 260 259 258 258 258 258 259 258 258 258 258 258 259 259 260 260 260 261 262 261 261 260 260 260 260 260 259 258 258 260 260 260 259 258 259 258
255 255 254 253 253 254 255 255 255 255 255 254 255 256 259 260 260 259 259 261 262 262 262 260 261 261 261 262 262 260 259 260 264 267 268 269 267 267 266 266 265 262 265 265 262 258 258 258 257 257 257 256 256 256 256 257 257 257 257 259 258 258 257 257 257 258 259 259 259 259 259 259 259 259 259 257 256 256 258 260 255 256 256 255 254
256 255 254 252 254 255 254 254 254 254 254 254 254 255 255 257 260 261 261 261 261 262 263 264 264 263 263 261 262 264 264 265 266 267 268 268 268 267 267 267 267 266 266 263 259 257 257 258 257 256 255 255 255 255 255 256 255 256 256 256 256 256 256 256 255 257 257 257 257 257 258 258 257 258 257 256 255 254 254 254 255 256 255 254 252
255 254 252 252 254 255 254 254 254 254 253 253 253 254 254 254 255 259 261 261 261 262 262 263 263 264 263 262 262 262 263 264 265 266 267 267 266 266 267 267 268 267 266 265 259 257 257 257 256 255 255 255 255 255 255 255 255 255 255 256 255 255 255 254 254 256 256 256 256 256 256 256 256 255 255 255 254 254 254 253 253 252 251 251 250
253 252 252 253 253 254 254 253 254 253 252 253 253 253 253 253 253 253 256 260 261 260 261 262 262 262 262 262 264 263 263 263 264 265 265 266 266 265 266 267 267 266 266 261 258 256 256 256 255 255 255 255 254 255 254 254 255 255 255 255 254 253 253 253 255 254 254 254 255 254 254 255 255 254 254 254 255 252 252 251 251 251 251 250 249
253 253 253 254 253 253 252 252 252 252 252 251 252 252 253 253 253 253 253 254 256 258 259 260 259 259 259 260 261 261 262 263 263 262 263 265 266 266 265 264 265 265 262 257 258 256 255 254 254 254 254 254 254 254 254 254 254 254 253 253 252 252 252 253 254 253 253 253 253 253 253 253 254 253 252 251 251 252 251 250 251 251 249 249 248
253 254 255 255 253 252 252 252 252 251 251 251 251 252 252 253 253 253 253 253 253 254 254 255 257 258 258 258 259 260 260 261 261 261 263 265 265 264 264 258 255 255 255 254 255 255 254 254 253 253 254 254 253 254 254 253 253 253 253 252 251 252 252 252 252 252 252 252 252 251 251 251 251 252 252 252 252 251 250 249 248 249 248 247 246
253 252 252 253 252 252 252 252 251 251 250 250 251 252 252 252 252 252 253 253 253 253 254 254 255 257 258 258 259 259 260 260 260 261 263 263 262 261 257 255 255 254 253 253 253 252 253 252 252 251 252 253 253 253 253 253 253 253 252 253 252 251 251 251 251 250 250 251 250 250 250 249 249 249 249 249 249 249 247 247 247 246 247 247 245
252 251 252 252 251 250 250 250 249 249 253 253 252 251 251 251 252 252 252 252 253 253 253 254 254 254 256 255 257 258 259 259 260 261 261 260 260 256 254 256 256 254 253 253 252 252 252 251 251 251 250 252 251 252 252 251 251 251 252 251 251 251 250 250 249 250 250 249 248 248 247 247 248 248 250 247 245 246 246 247 247 247 247 247 247
250 250 250 251 250 250 248 249 250 253 252 251 250 250 250 250 250 251 252 252 253 253 253 253 254 253 253 254 257 255 255 258 258 258 257 255 252 251 252 252 253 255 254 252 252 252 252 250 249 250 249 250 250 249 250 249 250 251 250 249 249 250 252 250 249 248 247 247 246 246 246 245 245 247 248 248 247 246 246 247 247 247 245 245 245
248 252 254 253 253 251 249 250 250 250 250 250 249 249 250 250 251 251 251 251 251 251 252 252 252 252 253 254 254 254 254 251 250 251 251 250 249 249 249 250 250 250 250 250 250 251 251 250 248 248 248 248 249 248 249 248 248 249 249 249 250 249 248 246 247 246 246 245 244 243 244 243 243 244 247 247 246 246 246 245 245 246 245 243 241
248 246 249 252 251 251 251 250 250 249 249 249 248 249 249 250 250 250 250 250 249 250 250 251 252 252 253 253 253 253 252 253 251 251 251 250 249 249 249 250 249 250 249 247 248 249 249 249 248 248 247 247 248 247 247 248 248 248 249 249 249 247 247 246 246 246 245 244 244 243 244 243 243 244 244 245 245 244 245 244 243 243 244 243 242
244 246 250 250 251 250 250 249 249 248 248 248 249 249 249 250 250 250 249 249 249 249 250 251 251 252 253 255 256 256 255 253 253 251 251 250 249 248 247 247 247 247 247 247 247 247 248 248 246 247 246 246 246 246 246 246 247 247 248 247 247 246 244 243 244 244 244 244 244 243 242 243 243 245 243 241 245 244 243 244 243 243 243 243 243
245 246 247 247 249 248 248 248 248 249 248 248 248 248 249 249 249 248 248 249 249 250 249 250 250 251 253 255 256 256 255 253 251 251 250 249 249 249 248 248 247 247 247 247 247 247 246 247 246 246 246 246 245 245 245 246 247 247 247 246 246 245 245 244 244 244 244 244 242 243 241 242 242 244 245 245 242 243 243 243 243 243 243 243 242
247 247 247 247 247 247 247 247 247 246 247 247 248 249 250 249 247 248 248 248 249 249 249 249 249 251 251 254 254 254 253 252 251 251 250 249 249 248 248 248 248 247 246 246 247 247 248 247 247 246 247 247 247 247 247 247 246 246 246 245 245 245 244 243 242 243 242 243 243 242 243 244 244 243 242 241 242 243 243 243 242 242 242 241 241
246 247 247 247 247 247 247 246 246 247 247 249 249 248 248 247 246 246 246 246 247 247 248 248 249 249 250 251 252 252 251 251 250 250 250 249 249 248 248 248 247 246 244 244 245 246 247 247 246 244 244 244 244 244 245 246 246 246 246 245 244 244 244 244 244 243 244 244 243 243 242 242 243 243 242 241 242 242 242 241 241 241 240 238 240
244 245 246 245 245 244 245 246 247 246 247 247 244 244 246 245 245 246 246 246 247 247 247 248 248 248 249 250 251 251 251 251 250 250 250 250 249 249 248 247 246 246 245 244 245 245 246 246 246 245 243 242 242 243 244 244 244 247 247 246 245 245 244 244 244 242 244 244 244 243 242 243 242 242 242 241 242 242 242 241 241 242 240 239 240
244 245 245 245 245 245 245 245 247 245 244 244 244 243 243 243 244 244 246 246 247 246 246 247 247 248 248 248 250 250 251 250 250 250 249 249 248 248 247 247 247 246 246 246 245 245 246 246 246 246 245 243 242 241 242 242 242 243 243 244 246 246 245 244 242 243 244 244 244 243 242 242 241 242 242 241 241 241 240 239 239 240 240 239 239
243 244 244 244 244 245 246 246 244 244 243 244 244 243 243 243 244 245 246 246 247 247 246 246 246 246 247 247 248 249 250 250 250 249 249 249 248 248 247 246 246 245 244 245 245 246 246 246 246 246 245 243 242 242 242 241 241 241 242 242 243 243 242 241 243 244 244 244 244 243 243 242 242 241 242 241 241 241 240 240 240 239 239 239 240
243 244 243 245 244 244 243 242 243 246 244 244 243 244 244 244 243 244 243 244 244 245 245 245 245 246 246 247 248 249 250 250 250 250 250 249 248 248 247 246 247 247 245 245 245 245 245 245 245 245 245 244 243 242 241 241 241 241 240 240 241 242 243 243 241 242 243 243 243 243 243 242 241 241 241 241 241 241 241 239 239 238 239 239 239
244 243 243 244 244 243 243 243 243 242 242 242 243 243 243 242 242 242 242 243 243 244 244 244 245 246 246 246 247 247 248 249 250 250 250 250 249 248 248 248 247 247 247 246 245 244 245 244 245 245 245 244 243 243 242 241 241 240 239 239 242 244 244 243 242 242 243 243 242 243 242 242 241 241 241 241 241 240 240 238 239 240 239 239 239
243 244 243 244 243 242 243 242 241 240 241 241 241 240 241 242 241 241 242 242 242 242 242 244 244 245 245 246 246 246 247 247 248 249 250 250 249 249 249 248 248 247 247 246 246 245 244 244 244 244 244 243 243 242 242 241 240 241 239 242 244 244 244 243 243 244 243 241 243 242 242 242 241 240 240 240 239 240 240 239 239 240 239 238 237
244 243 243 242 242 242 241 240 240 240 239 240 240 239 240 240 240 240 240 240 240 241 242 242 243 244 245 245 245 246 246 246 247 248 249 250 250 249 249 248 248 247 246 246 246 245 244 244 244 244 243 243 243 242 241 242 240 241 243 244 244 244 244 244 243 243 243 242 241 242 242 241 241 240 239 239 239 240 240 240 239 239 238 238 238
Wind_Speed
7 6 4 4 5 6 6 5 6 5 5 5 5 5 5 5 5 5 3 3 4 2 4 3 4 5 6 6 6 6 7 9 8 9 9 9 9 10 10 10 12 11 12 13 10 9 10 11 11 10 10 10 9 10 10 10 11 11 11 11 12 12 13 13 15 17 9 3 4 6 8 7 8 12 12 10 10 11 10 10 10 10 10 10 9
8 6 5 5 5 6 6 5 5 5 5 5 6 6 5 5 6 4 4 6 3 4 4 4 3 4 4 5 6 6 6 7 8 8 9 11 10 8 9 11 11 13 13 13 11 9 10 11 12 11 9 11 10 11 10 10 10 10 11 11 12 13 13 13 14 15 15 8 6 2 4 8 9 9 13 13 12 8 10 10 9 10 9 8 8
8 6 6 6 7 6 6 5 5 6 6 6 6 6 6 6 5 5 6 6 4 4 5 4 4 4 5 5 5 6 6 7 6 7 9 10 11 10 9 10 11 13 13 13 13 11 11 11 11 11 10 10 11 11 11 11 10 12 13 11 12 13 13 14 13 15 15 13 9 5 6 8 11 9 11 10 10 10 12 11 11 9 8 9 9
9 6 6 7 8 7 6 6 6 6 6 6 7 7 6 6 5 4 6 5 5 6 4 5 5 4 5 5 5 6 7 7 7 6 8 9 10 11 10 10 10 11 13 13 13 12 11 11 11 12 11 13 11 10 10 10 11 10 12 12 12 14 12 12 15 14 12 12 10 10 8 7 8 5 7 8 8 9 10 7 6 8 9 8 9
10 8 7 9 9 8 7 7 6 6 6 6 7 7 7 7 6 6 6 5 5 5 5 4 5 5 6 6 5 5 6 7 8 8 7 7 9 10 11 11 11 11 12 14 14 14 13 12 11 11 11 13 13 12 9 11 11 11 12 11 11 12 11 11 12 13 13 13 10 8 7 7 6 7 8 10 8 7 4 7 9 9 8 7 6
12 11 10 9 9 8 8 6 6 7 7 6 7 7 7 6 7 6 5 7 6 5 6 5 5 6 5 6 5 6 6 5 6 8 8 8 8 9 9 11 11 11 13 13 13 13 13 13 12 12 11 12 12 14 12 12 11 12 13 12 11 11 12 12 12 13 13 13 12 7 5 8 6 6 9 10 10 9 7 6 5 7 8 7 6
13 12 11 10 8 8 7 7 6 6 6 7 6 6 7 7 6 6 6 6 6 6 6 6 6 6 6 5 6 7 7 6 6 6 8 8 8 9 10 11 12 12 12 13 13 13 13 11 13 13 13 12 13 14 13 13 11 12 12 13 13 12 12 11 12 13 13 13 12 10 8 8 8 9 7 9 9 10 11 8 7 6 7 8 7
13 12 11 10 9 9 8 6 6 6 6 6 7 7 7 7 6 6 5 6 7 7 7 8 7 5 6 6 7 5 5 6 6 5 6 7 8 9 10 11 13 14 14 12 10 11 13 13 13 13 13 12 12 13 14 14 12 12 11 11 11 13 12 12 12 12 13 13 13 11 10 9 6 1 3 8 7 6 9 11 13 9 8 7 8
12 12 12 12 11 7 5 4 4 5 6 6 7 8 8 7 6 6 5 6 6 7 8 7 7 6 6 6 6 5 5 6 5 6 7 9 8 9 11 11 12 13 12 12 12 14 13 13 12 12 15 20 24 22 20 19 14 12 11 11 12 12 12 12 12 11 12 12 13 11 10 9 10 10 9 10 13 16 11 7 7 9 8 7 5
12 12 12 9 7 6 6 6 7 7 7 7 7 8 7 7 6 5 6 6 6 7 7 7 6 7 8 7 6 6 6 5 7 12 14 11 11 10 11 11 11 11 13 13 14 13 12 11 11 21 25 25 25 25 25 24 25 19 14 11 11 12 12 12 12 11 11 12 13 12 12 12 12 14 14 14 12 5 8 10 11 7 6 4 2
11 10 10 8 7 7 7 8 8 8 7 7 7 8 8 6 5 6 7 7 7 6 6 6 7 7 8 8 8 8 7 5 11 16 19 23 16 12 12 12 11 10 12 12 13 13 12 11 11 14 18 19 18 23 24 25 24 24 26 24 17 13 12 13 12 11 12 12 11 12 13 14 14 12 14 13 11 12 12 12 10 8 10 11 10
11 9 8 7 7 7 7 8 7 7 6 7 7 7 7 6 7 7 7 6 6 5 5 7 7 7 7 8 9 8 8 9 17 19 22 23 21 14 11 10 10 10 9 11 11 11 12 12 12 11 11 13 14 15 19 23 23 23 25 25 25 24 20 15 12 12 12 11 11 12 12 14 12 11 11 11 11 11 10 10 11 12 11 10 8
9 9 8 8 8 8 8 7 7 6 6 7 7 8 8 8 8 8 8 7 5 6 7 7 8 8 7 8 8 8 8 12 18 21 22 24 24 21 11 11 12 11 10 12 13 13 11 11 12 11 10 16 14 13 15 16 20 23 23 24 25 25 23 23 20 14 10 12 12 11 12 11 12 12 11 12 11 12 10 9 9 10 11 12 10
9 9 9 8 7 7 6 7 8 8 9 9 10 10 10 10 10 9 8 8 8 9 8 9 8 7 7 8 8 8 9 11 20 23 23 24 25 22 13 13 12 12 13 13 11 11 11 12 11 11 10 11 11 13 14 15 15 15 15 15 14 18 22 23 22 21 15 11 12 13 11 10 10 9 10 8 11 12 12 12 11 10 10 9 4
9 10 11 8 7 8 10 10 10 10 10 10 10 10 10 10 10 9 7 7 8 8 8 7 6 6 7 8 8 9 9 16 22 24 25 26 26 23 13 12 12 12 13 14 13 12 11 12 12 11 11 10 10 13 14 14 13 13 14 14 13 13 12 13 14 13 12 10 10 11 9 8 8 8 9 9 12 11 11 12 12 10 6 7 7
11 12 8 8 10 10 10 10 9 9 10 9 9 10 10 9 9 7 7 7 6 6 6 6 8 9 8 8 8 10 10 18 22 24 26 26 27 16 12 12 11 11 11 9 9 9 10 11 11 11 10 10 13 18 17 14 11 11 13 13 12 10 10 11 15 15 11 10 9 8 7 8 8 8 9 9 7 6 7 7 8 8 9 7 6
10 9 11 12 11 10 9 8 8 9 10 11 11 11 11 11 9 8 9 8 8 7 8 8 8 9 9 7 9 11 10 15 22 24 26 28 22 13 11 10 10 12 12 10 8 9 10 10 10 9 9 9 13 18 19 19 11 9 9 10 10 9 8 8 12 17 16 15 13 11 12 14 15 16 16 16 11 10 9 9 9 9 10 9 5
9 10 10 10 10 8 7 8 10 11 10 11 11 11 11 10 10 8 9 9 8 7 8 9 8 8 8 9 9 11 12 13 22 24 26 27 23 15 11 10 10 11 11 10 9 9 11 16 15 8 8 9 15 18 19 16 9 8 9 9 9 9 7 6 6 8 15 15 15 15 15 16 17 18 19 18 18 13 13 12 11 9 9 9 9
9 10 10 10 8 5 7 8 9 10 11 11 11 12 11 10 10 9 8 7 8 8 8 9 9 7 7 9 12 13 13 13 20 24 26 25 20 12 11 10 11 12 12 11 8 9 9 9 14 11 8 10 17 18 19 17 9 8 6 7 8 8 6 7 8 8 8 9 9 11 11 14 12 11 12 18 17 12 8 9 9 11 11 8 8
10 9 10 8 4 7 6 7 8 9 11 11 11 11 10 10 10 10 9 8 8 7 8 8 10 8 7 9 10 10 12 12 14 24 24 24 24 15 10 10 11 12 10 10 9 8 8 7 8 10 13 14 15 16 16 14 7 7 5 5 6 7 4 4 7 7 7 8 8 9 9 8 8 8 9 10 9 7 7 8 8 9 8 9 9
9 10 7 4 6 6 5 5 8 9 9 10 10 10 9 10 10 9 9 8 7 8 9 8 8 8 8 9 9 10 10 12 13 23 23 23 24 20 11 11 11 10 9 8 6 8 8 7 6 7 10 12 14 16 17 16 10 5 4 5 4 3 2 4 7 8 6 6 7 7 7 7 7 6 7 8 7 6 6 6 6 6 8 9 8
10 9 4 6 6 6 6 7 7 8 8 9 10 10 9 10 9 8 7 7 8 9 8 7 7 8 8 9 9 10 11 16 12 17 22 23 23 24 13 11 12 11 11 8 6 7 8 7 6 7 10 11 14 16 16 19 8 4 4 7 8 6 3 3 4 5 6 5 6 6 6 7 6 6 7 7 7 7 7 6 6 6 5 5 8
9 6 5 6 7 7 7 7 8 7 8 9 10 10 9 9 8 7 7 8 9 9 8 7 7 8 8 8 8 9 9 10 15 13 18 22 23 23 24 17 19 13 10 9 8 8 8 7 6 9 11 11 11 14 19 12 1 2 7 8 10 10 6 5 5 6 6 6 7 6 5 6 7 7 7 7 7 8 8 8 9 10 10 10 11
7 5 6 7 8 8 7 7 8 8 8 9 9 10 10 8 7 7 7 7 7 8 7 7 7 8 9 9 9 8 8 8 11 17 15 20 21 21 19 18 18 11 10 8 7 8 7 6 6 10 14 17 10 7 11 11 7 2 3 10 11 8 5 5 6 6 6 6 7 7 6 6 8 9 10 12 13 11 8 9 10 13 13 10 12
6 6 7 8 8 8 6 7 8 8 8 7 9 9 8 8 8 8 7 7 7 7 7 6 7 8 8 9 9 9 8 8 8 12 18 17 18 17 17 18 19 21 12 7 8 6 6 12 13 3 8 11 12 10 8 11 14 12 10 8 7 5 5 5 6 6 7 7 6 8 9 6 6 7 6 8 10 10 10 9 11 13 14 15 14
7 7 7 7 8 7 7 8 8 8 8 7 7 7 7 8 8 8 7 7 7 7 7 7 7 7 8 8 9 9 9 8 9 9 10 10 9 11 14 13 13 14 4 4 6 6 3 3 10 10 9 8 6 6 5 6 11 13 12 9 5 4 4 5 5 7 7 7 6 10 9 10 10 7 7 9 10 7 9 11 11 8 9 11 12
8 8 8 8 7 6 7 7 8 8 7 6 6 6 6 6 7 7 6 7 7 7 7 7 7 7 8 9 9 9 9 8 8 8 8 7 6 6 6 6 6 6 7 6 6 6 7 6 6 7 7 10 9 8 6 7 8 8 7 6 5 5 5 5 5 7 7 7 8 10 8 7 6 8 7 8 8 6 6 9 10 8 8 8 11
7 8 9 7 6 6 6 8 10 8 7 7 7 7 7 6 7 7 7 7 7 8 7 7 7 7 8 9 9 9 9 8 8 8 8 7 6 5 5 4 3 2 2 3 4 4 4 4 4 4 4 5 5 5 5 5 6 6 8 6 5 6 8 10 9 7 6 7 7 6 6 6 8 7 7 8 7 6 5 8 10 9 7 9 9
8 8 7 6 6 5 6 6 7 7 7 7 6 6 7 8 8 8 7 7 7 7 7 8 8 8 8 9 8 9 8 9 10 8 10 11 9 6 3 5 4 3 1 3 3 3 4 4 3 3 4 4 4 4 5 5 6 6 6 6 5 6 6 5 7 6 6 8 8 7 7 7 7 7 8 9 7 6 5 9 7 10 6 8 10
7 7 6 5 5 5 6 6 6 7 6 7 7 8 8 12 11 10 8 10 15 16 14 10 10 9 9 7 4 7 8 10 17 21 22 22 20 12 9 8 7 4 3 2 3 4 3 4 3 3 4 4 4 4 4 3 4 5 5 5 5 6 6 6 6 5 5 7 7 8 7 7 7 7 8 9 6 6 5 6 6 7 8 8 9
7 6 5 4 6 6 6 7 7 6 6 6 5 8 9 8 12 17 16 15 15 16 18 20 20 18 12 7 7 15 17 17 17 20 23 20 10 1 9 12 8 8 7 5 2 2 2 3 2 3 2 3 3 3 2 3 3 4 4 4 5 5 6 6 5 5 6 7 6 6 6 7 7 7 8 7 8 6 7 7 8 8 9 9 10
6 5 4 5 7 7 6 7 7 7 6 4 5 6 8 10 10 9 13 15 15 16 18 18 17 15 15 13 10 7 12 16 16 17 16 10 2 5 7 4 4 4 12 6 3 2 2 3 1 0 1 2 2 3 2 3 3 3 2 5 5 4 5 5 3 5 6 7 7 6 6 7 7 7 7 7 7 7 7 7 8 9 8 8 8
5 4 5 6 6 8 8 7 6 6 5 5 6 6 7 8 10 12 10 12 15 15 15 15 14 14 16 15 15 12 11 12 15 15 16 13 7 4 5 7 8 7 4 3 2 1 0 1 2 1 1 3 3 3 3 2 3 3 3 4 4 3 4 3 4 6 6 5 6 6 6 7 7 7 7 6 7 7 7 8 7 8 9 10 7
4 4 4 6 7 7 7 7 6 5 5 5 5 6 6 7 9 10 12 10 8 8 8 9 10 13 13 15 15 13 12 12 13 13 14 13 12 9 6 4 7 10 4 3 3 3 3 1 1 1 1 3 3 4 4 3 3 4 4 5 4 3 4 3 6 6 6 6 7 6 6 6 6 8 7 6 6 7 8 7 8 9 7 8 9
4 6 11 9 6 6 6 6 6 5 5 5 6 6 7 8 8 9 9 10 10 10 9 6 6 9 11 11 12 13 12 11 11 11 12 13 12 12 7 4 3 3 5 3 2 3 4 3 3 2 2 3 3 4 4 3 3 3 4 4 4 4 4 6 5 5 6 6 6 6 5 6 6 6 7 8 7 7 7 7 6 8 9 8 8
4 5 5 7 7 6 5 5 5 5 6 6 6 7 8 8 9 8 9 9 8 8 8 7 7 8 13 11 12 12 12 11 11 10 9 9 11 11 5 2 0 0 1 2 1 2 2 3 4 2 2 2 3 3 4 4 3 3 3 5 4 4 5 5 5 5 5 6 6 6 6 6 6 7 7 7 7 8 6 7 7 7 8 8 7
5 5 5 5 5 5 5 5 5 6 7 8 8 7 8 8 8 8 8 8 7 7 7 7 7 7 6 4 7 10 12 12 10 9 8 9 9 6 3 3 4 3 2 2 1 2 3 2 2 3 3 4 3 3 4 4 3 4 3 4 4 5 4 4 5 6 6 6 5 6 5 6 6 5 8 8 6 7 7 7 7 8 8 9 8
5 5 5 5 4 5 5 6 6 10 8 7 7 7 7 7 7 7 8 7 7 7 6 6 6 6 7 7 8 5 7 9 8 6 6 6 5 4 3 4 2 2 4 3 2 3 2 1 1 2 3 2 4 4 4 4 4 4 5 4 4 5 5 5 5 6 6 6 6 5 6 5 6 6 7 8 7 7 7 7 8 8 7 7 6
4 5 8 10 7 6 5 6 7 7 7 7 6 7 8 7 7 6 7 6 6 6 6 6 6 6 6 6 6 5 6 5 4 5 5 4 1 0 1 1 2 2 1 1 2 1 2 3 2 1 3 3 4 4 4 5 4 4 5 5 5 5 6 5 5 5 5 6 5 5 6 5 5 5 7 8 7 7 7 7 7 8 8 7 5
3 3 4 8 6 7 7 8 8 7 8 7 6 6 6 7 6 6 6 5 5 5 5 6 6 5 6 5 6 5 5 5 4 5 4 4 3 2 1 1 1 2 2 2 2 2 2 2 2 3 3 3 4 4 3 4 4 5 5 5 6 5 5 5 6 6 6 5 6 5 6 6 6 6 6 6 7 7 8 8 6 6 7 7 6
3 3 4 5 7 7 6 7 7 6 6 6 7 6 6 6 5 6 5 5 5 5 6 6 6 6 6 8 12 11 6 4 3 4 4 4 3 3 2 3 2 2 1 1 2 2 2 3 3 2 3 3 3 4 4 4 5 5 5 5 5 5 5 4 5 5 6 6 6 6 5 6 6 7 7 5 6 7 7 7 7 7 7 7 8
3 3 4 5 6 5 6 7 7 7 6 7 6 6 6 6 5 5 6 5 6 6 6 6 6 6 9 15 12 13 7 4 3 4 4 3 3 4 3 3 3 2 2 3 3 4 3 3 3 3 4 4 4 3 4 4 5 5 5 5 6 6 6 5 5 6 6 6 5 6 5 6 6 6 7 6 7 7 7 7 7 7 7 7 8
3 4 5 6 5 5 6 6 6 5 5 5 4 5 6 6 5 6 6 6 5 6 5 6 6 6 7 9 10 10 5 4 4 4 4 4 4 3 3 4 4 4 3 2 3 4 4 4 4 4 4 5 5 6 6 6 5 5 5 5 6 6 6 6 5 5 6 6 6 5 6 6 7 7 7 7 6 7 7 8 7 7 8 7 7
3 5 6 5 6 5 6 5 5 5 4 5 5 6 6 6 5 5 5 4 5 5 5 5 6 6 6 7 6 5 4 4 4 4 4 3 4 4 4 3 3 2 2 3 3 4 4 4 4 3 2 2 2 2 3 5 6 6 6 6 6 6 6 6 6 7 7 7 7 7 7 6 7 7 7 7 7 8 7 7 7 7 7 6 7
5 5 5 5 5 5 6 5 5 5 5 6 4 5 7 5 5 5 5 5 6 5 5 5 5 6 7 6 6 5 5 5 4 4 4 3 4 4 2 2 3 3 3 3 3 3 3 4 5 4 3 2 2 3 4 4 4 5 6 7 7 7 7 7 7 6 7 8 8 7 7 7 7 7 7 6 7 7 7 7 7 7 7 6 7
4 5 6 5 6 7 6 6 5 3 4 5 6 6 5 5 5 4 6 6 6 5 5 5 5 5 6 6 6 6 5 5 4 4 4 3 3 3 2 2 2 3 3 3 4 3 4 5 5 5 5 4 4 3 3 3 3 4 3 3 6 6 5 6 6 7 7 8 8 7 7 7 6 7 7 7 7 7 7 6 5 6 7 6 6
3 4 5 6 5 6 6 5 3 5 4 5 5 4 5 5 4 4 6 6 6 6 5 5 5 5 6 6 6 6 6 5 5 4 4 3 3 3 2 2 2 2 2 3 3 4 4 4 4 5 5 3 4 4 4 3 5 4 4 5 6 7 6 5 6 6 6 7 8 8 7 8 7 7 8 7 7 7 7 7 7 7 7 7 7
4 5 5 6 5 5 5 3 4 6 6 6 5 6 5 4 4 5 5 5 5 6 5 5 5 5 6 5 6 6 6 6 5 4 4 4 2 2 2 2 3 3 3 3 3 3 3 4 4 5 5 5 4 4 4 4 4 5 4 4 5 6 8 7 5 6 6 7 7 8 9 8 7 7 7 8 7 7 8 7 6 6 7 7 7
4 4 4 4 4 4 4 5 6 6 5 5 4 5 6 3 4 4 5 5 5 5 5 5 5 5 5 5 5 5 6 6 5 5 4 4 2 1 1 2 2 4 4 4 4 3 4 4 4 4 5 5 5 5 5 4 4 4 4 4 6 10 11 10 8 7 8 8 7 7 7 8 8 7 7 7 7 7 7 5 6 6 5 5 6
3 4 4 4 4 4 5 5 4 5 5 4 4 5 4 4 5 4 5 5 5 4 5 5 5 5 5 5 6 5 5 5 6 6 5 4 2 0 1 2 2 3 3 4 4 4 4 3 4 5 4 5 5 5 5 5 4 5 4 6 9 11 10 11 11 11 9 6 7 7 8 8 7 7 7 7 7 8 8 7 6 7 6 6 5
4 3 4 3 3 3 3 3 4 4 4 4 4 4 4 4 5 5 4 4 5 5 4 5 5 5 5 5 5 4 5 5 5 5 5 4 2 0 1 2 2 3 3 4 4 4 4 4 4 5 4 5 5 5 4 5 4 5 7 10 11 11 12 11 9 9 10 8 7 8 8 9 8 8 7 7 7 7 9 7 7 7 6 6 5
Wind_Direction
255 251 252 251 247 256 261 267 266 260 261 259 258 264 267 266 266 266 272 273 270 265 282 289 304 317 326 330 331 333 335 337 339 336 335 330 329 322 321 321 316 312 311 307 306 309 308 302 286 264 253 246 240 238 233 228 223 221 219 218 219 215 217 224 236 251 244 230 225 210 202 172 201 207 209 206 203 204 197 206 201 204 210 213 215
264 263 261 256 252 256 258 257 258 259 261 260 254 258 259 260 259 270 269 271 270 273 279 284 287 295 308 317 320 326 327 329 332 333 330 328 324 323 320 318 313 311 310 305 305 307 306 302 301 292 266 252 243 242 234 231 224 222 221 217 219 220 211 217 231 241 247 228 241 205 179 191 211 198 203 201 208 199 203 203 204 203 207 206 209
266 258 257 259 257 255 261 265 263 265 266 269 266 263 258 253 250 254 263 269 268 264 275 278 280 290 301 305 311 316 322 323 326 328 325 323 319 317 315 310 310 309 307 303 303 303 301 300 297 299 293 270 249 243 238 235 228 226 226 218 221 221 214 212 222 234 239 236 222 211 191 198 209 201 203 211 205 197 199 203 200 201 205 203 205
271 262 259 258 254 256 257 258 260 263 267 268 272 272 272 273 264 253 256 255 263 264 262 270 281 282 285 297 304 310 317 318 317 323 319 318 316 312 311 307 302 304 302 302 301 298 295 295 297 299 300 293 273 251 239 235 232 231 231 227 224 226 219 212 217 232 236 238 216 217 205 193 215 205 183 199 196 197 208 205 199 206 207 205 205
289 276 266 255 240 248 256 258 258 259 260 266 269 271 271 272 272 266 265 262 254 259 260 255 269 280 284 287 294 301 307 313 316 313 313 309 308 307 306 304 301 296 295 295 296 296 292 287 288 293 296 293 290 273 252 239 232 232 233 231 228 227 225 219 220 223 233 235 231 214 202 203 204 194 172 180 195 200 189 196 198 199 197 202 206
306 294 284 272 260 250 251 256 256 259 264 267 266 265 266 265 264 264 257 263 267 255 256 257 249 262 267 277 283 289 293 296 299 303 306 307 301 300 300 299 297 292 290 288 286 290 289 287 289 288 285 283 285 285 272 253 240 234 232 232 230 227 227 222 221 224 227 234 229 210 201 195 197 199 190 185 180 183 187 191 184 188 187 191 194
305 299 289 277 265 257 254 251 251 260 266 269 271 270 265 260 253 252 251 254 260 263 256 253 248 241 250 252 267 278 286 286 285 289 295 297 298 296 297 294 292 291 288 285 285 284 282 291 292 286 280 277 277 280 279 267 251 243 233 234 230 229 229 223 218 220 223 228 229 219 205 212 195 197 198 188 188 186 182 172 199 199 192 188 186
306 304 299 289 272 261 253 251 256 261 265 269 273 274 273 265 250 247 246 250 254 255 258 255 253 233 237 238 246 252 266 280 282 280 279 286 292 289 284 286 288 290 289 281 280 286 288 282 282 283 280 274 271 272 274 272 262 250 241 234 232 229 228 227 221 218 219 221 223 217 209 199 211 183 141 167 178 203 202 190 195 182 187 194 192
308 310 305 294 280 273 287 293 289 279 276 277 280 279 274 266 256 250 246 250 252 253 257 254 258 256 246 242 248 241 248 258 267 279 288 286 275 279 285 285 286 287 285 287 288 286 275 274 275 280 282 283 279 274 271 272 270 263 247 237 233 232 230 227 225 220 218 217 220 215 206 200 200 184 180 185 195 202 188 177 194 188 181 177 193
309 309 306 304 310 317 313 307 299 292 288 288 285 281 275 265 261 261 259 253 252 255 257 256 253 257 263 261 253 250 246 245 250 264 276 285 291 294 293 287 283 282 283 282 280 278 275 271 275 284 288 288 285 278 272 269 266 262 259 248 236 234 230 229 225 221 219 216 214 205 202 206 200 196 192 198 198 159 140 175 192 172 137 150 134
303 302 301 307 312 311 304 297 299 297 293 292 292 288 281 276 275 275 275 270 267 263 260 264 259 256 259 262 269 267 260 250 260 278 288 294 296 294 291 288 276 267 265 268 273 273 273 276 280 282 284 287 288 285 278 271 265 261 257 251 244 235 231 229 228 222 222 220 213 206 203 206 205 198 200 190 187 181 181 184 179 157 168 171 196
300 303 308 310 304 303 300 296 293 295 300 300 304 300 297 297 294 291 286 282 275 269 267 260 258 258 258 260 265 269 271 268 279 288 292 294 294 291 286 283 281 271 271 272 276 279 279 281 280 276 276 279 285 287 282 275 267 259 254 251 247 239 233 228 226 225 219 222 216 212 203 209 201 194 197 186 185 184 185 179 176 176 175 188 190
317 316 313 308 303 302 303 303 303 310 314 315 313 313 307 302 295 290 285 278 277 276 271 269 266 259 257 264 266 267 269 276 285 288 292 292 292 293 287 281 278 275 272 276 275 273 278 282 282 275 275 280 285 286 284 280 269 259 252 250 247 242 236 231 228 225 216 219 221 217 211 205 202 195 194 192 178 176 167 177 182 187 186 187 192
318 315 311 305 304 311 318 325 324 319 316 312 309 304 301 294 291 286 284 284 283 285 282 275 274 266 258 258 262 264 269 274 284 289 290 290 291 293 289 279 271 266 266 265 266 274 280 279 275 277 279 281 281 283 285 283 277 261 251 245 243 240 236 230 227 226 220 216 215 220 213 204 206 192 191 166 171 177 177 183 181 177 183 189 158
321 320 309 311 335 337 330 322 315 312 309 306 304 301 297 294 289 288 288 291 292 289 288 287 275 263 259 257 259 266 267 276 286 288 289 289 290 292 288 277 269 267 267 265 265 270 275 275 270 270 275 278 279 280 283 283 282 270 250 242 236 234 230 226 224 222 218 214 219 222 214 200 200 185 174 177 186 187 186 180 176 169 125 80 64
313 302 310 335 331 324 319 314 312 311 309 308 307 305 302 299 303 305 297 288 276 274 274 266 273 274 269 265 267 273 272 280 287 288 288 288 289 289 280 270 269 272 271 268 271 274 272 269 267 266 269 272 275 279 281 280 276 280 264 242 234 227 226 223 221 218 212 205 205 200 180 180 171 164 169 169 156 116 91 84 87 112 130 139 132
306 318 327 321 319 315 310 310 311 313 313 311 308 306 304 302 297 293 288 283 282 282 281 282 283 281 279 272 273 278 279 284 287 287 287 286 288 283 277 275 276 276 274 272 272 274 272 266 261 262 264 270 276 280 281 280 272 268 279 263 235 221 217 218 218 215 207 202 190 167 164 164 163 164 164 157 152 142 128 130 153 154 149 152 146
310 309 305 303 300 301 307 317 316 312 311 306 304 302 300 296 291 287 282 285 284 286 288 287 284 277 276 279 275 280 282 280 285 286 286 285 284 281 276 273 269 269 273 274 274 272 269 267 265 263 273 275 278 279 277 277 274 269 270 275 262 224 211 198 190 203 194 181 176 169 168 168 166 166 164 158 152 151 155 168 169 155 162 170 164
305 301 297 294 291 308 321 316 312 310 306 304 302 300 298 295 293 290 283 285 287 288 287 285 283 278 270 273 277 278 282 283 285 286 286 284 282 275 270 265 266 264 263 264 263 267 269 262 263 265 268 281 289 282 269 261 254 252 257 260 254 238 213 188 182 180 176 165 167 166 168 168 165 163 166 159 160 164 165 154 154 160 173 164 137
299 291 287 286 312 317 309 308 306 306 304 302 301 298 298 298 297 295 292 288 287 286 285 281 280 280 281 279 279 277 280 281 280 285 284 283 281 276 269 264 263 265 263 261 264 267 268 261 261 266 273 285 303 309 307 269 224 230 236 250 245 232 244 201 184 171 171 162 160 156 154 152 147 148 150 148 149 143 132 145 159 162 156 148 157
293 288 282 301 308 299 295 294 298 299 298 300 300 299 297 294 293 290 290 290 288 288 285 281 278 281 282 280 278 276 273 278 278 283 285 284 282 278 269 265 263 265 265 255 256 264 270 264 258 265 278 286 295 304 307 296 232 208 203 219 241 232 173 163 180 153 132 130 127 132 129 129 134 137 134 131 125 117 113 125 134 138 142 145 145
290 283 293 301 295 291 288 290 290 293 297 298 299 296 293 290 287 289 288 286 288 286 285 281 279 282 283 280 277 274 275 275 275 278 285 286 286 284 278 266 261 253 257 247 248 255 253 259 258 263 279 281 291 299 297 301 222 158 197 207 216 157 102 106 98 106 115 117 116 116 118 119 118 116 117 117 113 106 99 90 83 72 71 113 140
285 283 300 295 287 284 284 288 293 296 297 297 296 293 292 291 291 291 288 289 289 289 285 284 285 285 285 281 277 275 275 277 277 280 285 288 289 290 285 278 268 261 249 241 237 242 242 245 252 266 272 276 276 291 287 287 230 178 200 199 144 120 116 98 100 100 106 109 112 106 106 114 109 112 115 106 98 94 85 81 78 78 72 55 50
283 292 295 291 285 281 281 286 287 289 290 294 293 291 292 293 294 289 287 286 288 289 287 287 285 285 287 287 284 282 280 280 282 286 289 289 292 291 293 291 293 286 261 242 237 229 232 239 244 253 268 265 259 20 22 44 12 15 157 112 109 115 109 103 94 100 99 98 97 98 89 97 102 86 80 82 78 80 73 71 71 76 77 65 62
283 286 288 285 281 277 280 282 284 285 285 286 291 292 294 301 301 299 296 292 285 283 283 284 283 286 288 287 289 289 286 285 285 287 289 292 293 295 299 304 312 303 270 225 206 208 202 225 234 220 55 61 53 36 13 32 30 21 40 72 93 94 93 99 108 102 94 90 90 81 51 56 82 93 97 93 97 91 85 73 82 86 86 82 73
283 286 288 284 277 279 284 286 284 281 280 279 279 280 284 292 292 294 293 287 285 281 285 284 282 284 285 285 286 287 290 291 288 287 288 293 292 295 303 305 323 345 352 152 179 170 171 69 62 60 53 47 48 38 8 20 34 28 25 32 37 62 86 98 92 98 100 100 89 82 79 71 59 78 90 96 95 93 109 109 106 94 92 92 79
283 290 288 283 278 274 279 286 293 295 293 289 278 276 278 275 278 282 281 284 287 284 279 280 281 285 283 286 286 287 289 289 287 286 290 289 279 281 304 305 324 360 8 17 39 52 65 67 58 63 65 64 59 46 24 7 31 24 17 25 37 44 45 60 97 105 107 102 90 70 84 86 92 83 78 88 86 75 98 111 106 104 96 90 94
282 287 287 284 279 276 280 289 297 299 295 292 291 291 285 276 273 272 272 274 283 287 283 277 277 280 287 285 287 288 287 287 284 283 287 289 278 272 269 285 314 341 17 13 34 35 55 61 50 18 26 27 26 40 22 23 37 34 8 9 31 48 74 82 72 75 78 98 104 99 87 86 83 88 82 77 80 65 75 100 108 103 98 109 87
290 286 281 276 273 278 283 289 289 291 291 289 279 268 277 286 282 274 250 231 243 269 283 284 281 278 275 277 283 293 288 282 276 271 274 270 263 238 258 255 260 285 198 138 66 28 33 38 33 28 34 53 39 34 25 33 36 33 22 7 19 36 38 47 85 89 112 112 110 109 104 96 92 92 94 79 65 71 72 89 78 103 71 77 99
290 285 273 272 282 285 288 288 289 287 282 286 294 293 274 280 286 284 285 283 291 296 297 293 288 284 285 280 285 290 279 272 280 284 289 290 298 244 218 220 222 205 208 144 104 63 46 62 38 42 29 44 57 51 45 42 45 42 21 13 23 46 52 56 65 81 76 92 107 108 109 106 100 96 94 95 75 61 39 82 81 87 94 99 101
284 279 281 284 291 295 294 294 292 286 281 284 291 299 306 295 296 295 291 292 293 295 300 302 301 295 292 304 311 310 319 322 303 288 282 291 350 227 227 216 212 200 193 148 63 92 85 74 52 42 49 73 85 92 72 70 64 70 48 41 33 48 59 62 49 70 86 90 80 85 94 103 105 102 103 99 100 81 71 57 77 73 100 112 108
280 275 279 281 292 291 290 291 292 289 286 288 297 305 306 307 306 301 299 296 295 297 301 303 304 307 314 316 311 310 316 325 337 346 338 312 25 5 7 340 282 269 201 155 116 153 153 133 109 86 84 88 99 103 85 87 82 94 100 68 46 25 53 64 25 72 88 91 95 93 92 96 98 98 103 105 98 89 89 79 86 95 85 79 93
270 280 281 287 288 297 300 293 290 286 290 302 304 306 307 309 310 312 306 297 296 297 299 303 310 317 319 318 319 316 313 318 332 340 341 344 349 35 344 327 325 360 103 80 110 107 89 132 154 158 136 128 125 122 98 87 95 70 59 87 82 42 54 46 80 77 75 86 97 97 101 102 101 95 91 96 105 102 94 96 92 97 105 102 92
266 268 277 289 295 295 292 289 288 285 291 293 293 302 300 301 302 301 305 309 300 289 284 285 300 315 316 319 320 322 322 325 328 330 329 323 325 332 346 33 37 26 53 166 154 174 159 143 158 170 96 94 114 108 104 92 77 91 83 73 83 79 56 40 72 77 78 79 89 95 95 100 110 111 98 83 82 98 99 109 114 109 100 112 117
275 293 302 304 293 288 288 289 292 297 299 298 296 294 294 297 296 297 296 297 303 307 313 300 299 314 319 318 317 320 325 323 320 320 319 319 333 333 344 29 2 357 8 23 105 139 156 160 162 172 151 143 145 138 128 124 110 99 107 107 91 83 71 67 71 76 88 91 88 85 96 103 94 97 118 122 114 103 112 109 101 116 122 120 118
289 286 289 291 291 284 285 287 291 296 295 288 284 288 295 296 295 291 287 286 289 295 294 300 303 312 314 315 317 321 324 323 320 315 317 331 1 6 354 337 81 32 63 340 79 107 111 139 137 135 127 105 112 113 130 135 130 119 121 122 116 98 99 98 92 84 76 89 99 109 99 86 98 103 85 75 96 114 114 113 112 110 117 120 122
295 291 290 288 284 287 289 291 288 289 291 294 297 295 291 289 291 287 284 283 285 281 286 297 307 306 308 297 308 320 323 322 319 321 328 343 357 34 2 300 230 181 180 191 133 127 113 124 100 128 144 139 123 121 121 115 110 112 99 81 107 105 91 103 108 110 104 96 88 90 97 106 104 101 109 104 91 97 105 105 105 108 114 122 119
274 275 275 286 294 298 299 291 289 302 296 290 287 289 290 289 284 281 282 286 284 289 296 298 302 305 310 310 322 314 312 312 315 323 346 2 12 20 20 358 332 213 190 178 185 152 141 137 138 150 163 134 132 125 118 122 131 126 120 101 84 97 104 91 82 83 87 98 97 95 98 93 97 104 102 114 123 117 111 115 117 109 103 98 109
272 290 304 312 310 303 297 296 298 299 294 294 291 292 292 290 289 286 289 285 290 291 290 294 294 294 296 302 305 308 320 321 326 306 307 316 330 311 334 32 38 21 24 155 169 161 150 186 213 94 126 129 125 127 127 131 129 120 123 119 109 105 103 106 97 96 96 100 90 90 94 92 85 89 109 113 114 117 115 113 114 121 122 113 103
288 289 289 302 303 299 299 300 300 298 298 299 294 288 289 290 289 292 298 304 302 303 300 299 296 293 298 300 293 291 293 284 278 278 284 296 297 310 302 233 203 202 213 220 210 184 180 173 165 148 125 115 118 118 113 128 132 133 134 131 135 127 125 124 129 123 119 112 111 107 109 106 99 94 84 102 124 127 125 122 121 115 117 118 115
274 275 286 293 300 303 298 296 296 294 295 294 291 291 284 287 303 318 314 304 304 302 302 297 295 297 295 301 308 308 293 280 282 280 267 266 261 261 269 244 217 220 223 192 185 171 169 159 163 130 108 103 103 112 117 114 120 124 121 114 108 117 111 104 113 115 117 119 121 116 115 120 127 116 108 113 112 109 108 114 111 110 111 114 119
280 285 289 287 293 293 297 297 296 298 297 292 292 287 295 314 314 310 308 309 305 305 302 300 299 294 301 309 315 317 318 324 307 287 272 250 237 242 235 229 227 218 187 185 167 164 156 152 153 141 130 125 119 113 113 120 127 128 128 126 128 129 128 130 129 131 130 124 122 122 124 119 108 104 118 122 117 115 111 109 115 115 115 115 117
267 277 279 289 290 293 295 295 297 295 293 292 300 314 317 312 310 307 307 306 308 308 305 307 306 307 302 308 313 314 308 294 290 278 262 250 238 225 218 213 211 208 216 196 175 161 157 157 156 165 156 162 160 158 158 153 148 131 131 132 136 136 134 130 122 123 120 117 118 119 120 114 110 110 113 111 112 109 112 116 113 113 117 119 121
269 280 285 284 288 291 290 290 291 285 282 308 317 315 312 310 306 308 305 306 305 304 309 308 310 311 310 310 311 311 298 297 294 284 268 256 240 230 227 206 192 189 188 176 162 147 139 135 127 106 82 97 112 118 127 143 145 143 141 134 132 136 142 146 149 150 141 130 126 121 111 109 110 112 112 118 117 113 112 110 114 116 115 117 115
273 281 284 291 288 286 285 287 284 286 306 310 307 305 307 308 307 304 306 304 302 308 311 313 316 316 316 314 314 311 305 302 299 296 284 257 243 241 227 192 188 186 171 167 159 142 126 125 130 130 116 93 79 111 123 137 144 147 148 141 140 149 164 169 165 153 140 129 128 122 122 121 120 116 117 119 120 119 118 125 125 116 111 117 118
270 276 285 282 287 285 287 281 285 309 307 302 299 299 295 300 303 307 311 310 311 312 316 315 315 315 316 317 314 312 308 305 297 291 286 271 249 246 227 205 180 178 174 158 156 150 137 138 142 143 141 135 122 102 109 121 115 117 129 134 144 148 145 132 131 133 133 130 129 128 123 116 116 123 122 122 118 114 119 118 116 122 126 126 123
272 279 279 281 280 281 284 289 311 303 298 298 297 294 295 296 302 317 317 317 319 319 313 310 315 315 317 317 318 318 318 312 301 297 287 276 254 231 199 164 145 138 124 133 143 135 131 129 132 135 134 131 122 115 109 97 99 98 96 100 103 112 128 138 140 137 133 129 127 126 127 126 125 122 112 111 112 118 121 126 131 128 125 127 129
269 274 279 279 282 281 281 299 300 297 300 300 296 295 298 304 316 312 310 310 312 310 311 311 312 311 316 313 316 319 321 321 312 300 293 287 264 225 183 169 164 151 129 123 117 120 123 127 123 121 126 129 125 120 112 105 102 102 92 97 112 123 129 128 117 116 123 128 126 126 126 124 125 124 126 123 126 128 121 122 117 116 122 125 127
265 270 277 284 280 279 294 298 295 296 294 292 299 302 296 300 304 308 306 306 305 306 312 314 316 317 318 314 316 318 320 323 326 327 315 301 274 201 189 162 141 141 145 139 136 129 127 124 126 128 131 131 130 127 127 124 120 113 113 109 122 129 129 127 124 124 121 115 110 110 111 118 122 124 122 121 123 119 116 119 121 123 121 120 119
273 274 277 279 282 288 291 295 296 296 292 294 295 294 295 302 307 305 306 306 308 314 315 318 321 317 318 324 327 325 325 327 328 329 327 324 312 154 137 140 145 149 147 147 139 130 124 123 122 120 123 124 126 125 131 131 133 130 126 129 131 129 126 123 123 125 121 117 120 122 122 119 119 120 121 123 122 120 122 129 131 129 128 124 126
284 284 281 281 281 285 296 294 292 288 291 291 290 292 298 297 291 294 296 299 306 307 309 313 315 318 321 318 322 327 327 323 321 323 329 334 337 55 132 140 146 131 120 121 122 121 125 123 121 122 123 123 124 128 127 130 132 134 134 134 132 130 128 125 123 124 121 118 117 121 123 127 126 122 121 122 123 125 134 133 133 129 131 132 130